Find Starlink 36926

NORAD ID: 67999 Int'l Des: 2026-039 Owner: SPXS Country: US Constellation: starlink operational
LEOCIRCULAR

实时位置

正在加载3D地球...

关于 Starlink 36926

正在加载描述...

即将过境

Passes for default location (London). Set your location on the main map for personalized predictions.

高度历史

Loading altitude history...

两行轨道根数

1 67999U 26039P 26106.25832296 .00017747 00000-0 65255-3 0 9994
2 67999 42.9998 196.3628 0001519 269.7034 90.3644 15.27595889 7456
Epoch: Apr 16, 2026 • Age: 8 hours

当前状态

高度 486.3 km
速度 7.63 km/s
星下点 39.53°N, 109.97°W
发射日期 Feb 27, 2026
运行时间 0.1 years
类型 internet

技术详情

分类 Payload
质量 575.00 kg
干质量 530.00 kg
总质量 575.00 kg
长度 0.30 m
直径 4.10 m
跨度 29.00 m
形状 Box + pan
制造商 SPXS
平台类型 Starlink V2MO
阶段状态 In Orbit
所有者/国家 SPXS/US

Most Searched